• Join FlightAware (Why Join?)
  • Login
  • US Flag GB Flag 
18:47 EDT


 

Airport Tracker/Info


-or-


 

Live Flight TrackerFlight Track Log ✈ SWA1718 ✈ 17-Apr-2013 ✈ KDEN - KMDW

Flight Track Log - Related Links

Times and Time Zones

All times are in EDT time to prevent confusion due to time zone crossing. See the SWA1718 flight status page for this flight to view local times or setup timezone preferences in your user account.

Time Position Orientation Groundspeed Altitude Reporting Facility
EDT Latitude Longitude Course Direction KTS MPH feet Rate Location/Type
19:32 39.9333 -104.6833 41° Northeast 190 219 7,100  Level Denver TRACON
19:32 39.9522 -104.6617 41° Northeast 206 237 8,200 1,800 Climbing Denver Center
19:33 40.0094 -104.6142 32° Northeast 241 277 9,900 1,800 Climbing Denver Center
19:34 40.0917 -104.5572 28° Northeast 309 356 11,900 1,860 Climbing Denver Center
19:35 40.1728 -104.5039 27° Northeast 327 376 13,800 2,160 Climbing Denver Center
19:36 40.2603 -104.4464 27° Northeast 353 406 16,300 1,920 Climbing Denver Center
19:37 40.3481 -104.3858 28° Northeast 359 413 17,800 1,440 Climbing Denver Center
19:38 40.4539 -104.3178 26° Northeast 393 452 19,300 1,320 Climbing Denver Center
19:39 40.5550 -104.2486 27° Northeast 412 474 20,600 1,260 Climbing Denver Center
19:40 40.6481 -104.1433 41° Northeast 433 498 22,000 1,260 Climbing Denver Center
19:41 40.7375 -104.0306 44° Northeast 437 503 23,200 1,080 Climbing Denver Center
19:42 40.8331 -103.9081 44° Northeast 471 542 24,300 1,440 Climbing Denver Center
19:43 40.9294 -103.7847 44° Northeast 479 551 26,200 1,500 Climbing Denver Center
19:44 41.0261 -103.6606 44° Northeast 476 548 27,700 1,200 Climbing Denver Center
19:46 41.1486 -103.5008 44° Northeast 485 558 28,900 1,020 Climbing Denver Center
19:47 41.2419 -103.3778 45° Northeast 492 566 29,800 840 Climbing Denver Center
19:48 41.3539 -103.2303 45° Northeast 506 582 30,700 660 Climbing Denver Center
19:49 41.4119 -103.1033 59° Northeast 510 587 31,200 780 Climbing Denver Center
19:50 41.4414 -102.9375 77° East 489 563 32,300 1,200 Climbing Denver Center
19:51 41.4844 -102.7172 75° East 482 555 33,700 1,080 Climbing Denver Center
19:52 41.5139 -102.5472 77° East 473 544 34,600 600 Climbing Denver Center
19:53 41.5497 -102.3569 76° East 474 545 35,000 180 Climbing Denver Center
19:54 41.5817 -102.1956 75° East 472 543 35,000  Level Denver Center
19:55 41.6294 -102.0333 68° East 487 560 35,000  Level Denver Center
19:56 41.6789 -101.8464 70° East 480 552 35,000  Level Denver Center
19:57 41.7214 -101.6856 70° East 478 550 35,000  Level Denver Center
19:58 41.7650 -101.5219 70° East 484 557 35,000  Level Denver Center
19:59 41.8167 -101.3300 70° East 488 562 35,000  Level Denver Center
20:00 41.8589 -101.1661 71° East 487 560 35,000  Level Denver Center
20:01 41.9089 -100.9742 71° East 486 559 35,000  Level Denver Center
20:02 41.9506 -100.8078 71° East 489 563 35,000  Level Denver Center
20:03 41.9939 -100.6414 71° East 491 565 35,000  Level Denver Center
20:04 42.0433 -100.4458 71° East 494 568 35,000  Level Denver Center
20:05 42.0847 -100.2786 72° East 492 566 35,000  Level Denver Center
20:06 42.1464 -100.0400 71° East 494 568 35,000  Level Minneapolis Center
20:07 42.1731 -99.9197 73° East 485 558 35,000  Level Denver Center
20:08 42.2139 -99.7564 71° East 482 555 35,000  Level Denver Center
20:09 42.2608 -99.5639 72° East 475 547 35,000  Level Denver Center
20:10 42.3014 -99.3958 72° East 471 542 35,000  Level Denver Center
20:10 42.3178 -99.3289 72° East 471 542 35,000  Level Minneapolis Center
20:11 42.3581 -99.1642 72° East 464 534 35,000  Level Minneapolis Center
20:13 42.3958 -99.0017 72° East 454 522 35,000  Level Minneapolis Center
20:14 42.4350 -98.8389 72° East 453 521 35,000  Level Minneapolis Center
20:15 42.4725 -98.6767 73° East 450 518 35,000  Level Minneapolis Center
20:16 42.4953 -98.5147 79° East 438 504 35,000  Level Minneapolis Center
20:17 42.5175 -98.3533 79° East 435 501 35,000  Level Minneapolis Center
20:18 42.5392 -98.1919 80° East 435 501 35,000  Level Minneapolis Center
20:19 42.5650 -97.9961 80° East 437 503 35,000  Level Minneapolis Center
20:20 42.5864 -97.8319 80° East 440 506 35,000  Level Minneapolis Center
20:21 42.6069 -97.6911 79° East 439 505 35,000  Level Minneapolis Center
20:22 42.6286 -97.5267 80° East 442 509 35,000  Level Minneapolis Center
20:23 42.6544 -97.3294 80° East 443 510 35,000  Level Minneapolis Center
20:24 42.6753 -97.1636 80° East 445 512 35,000  Level Minneapolis Center
20:25 42.6947 -97.0058 80° East 440 506 35,000  Level Minneapolis Center
20:26 42.7153 -96.8431 80° East 440 506 35,000  Level Minneapolis Center
20:27 42.7350 -96.6814 81° East 438 504 35,000  Level Minneapolis Center
20:28 42.7592 -96.4853 80° East 439 505 35,000  Level Minneapolis Center
20:29 42.7786 -96.3211 81° East 441 507 35,000  Level Minneapolis Center
20:30 42.7906 -96.1547 84° East 444 511 35,000  Level Minneapolis Center
20:31 42.7822 -95.9989 94° East 423 487 35,000  Level Minneapolis Center
20:32 42.7736 -95.8361 94° East 429 494 35,000  Level Minneapolis Center
20:33 42.7650 -95.6717 94° East 435 501 35,000  Level Minneapolis Center
20:34 42.7550 -95.4722 94° East 441 507 35,000  Level Minneapolis Center
20:35 42.7461 -95.3067 94° East 442 509 35,000  Level Minneapolis Center
20:36 42.7369 -95.1428 94° East 438 504 35,000  Level Minneapolis Center
20:37 42.7278 -94.9917 95° East 440 506 35,000  Level Minneapolis Center
20:38 42.7167 -94.7967 94° East 432 497 35,000  Level Minneapolis Center
20:39 42.7072 -94.6344 94° East 430 495 35,000  Level Minneapolis Center
20:40 42.6964 -94.4681 95° East 439 505 35,000  Level Minneapolis Center
20:41 42.6864 -94.3011 95° East 445 512 35,000  Level Minneapolis Center
20:42 42.6744 -94.1347 96° East 447 514 35,000  Level Minneapolis Center
20:43 42.6614 -93.9339 95° East 449 517 35,000  Level Minneapolis Center
20:44 42.6500 -93.7650 95° East 452 520 35,000  Level Minneapolis Center
20:46 42.6389 -93.5961 95° East 453 521 35,000  Level Minneapolis Center
20:47 42.6275 -93.4314 95° East 446 513 35,000  Level Minneapolis Center
20:48 42.6158 -93.2644 95° East 447 514 35,000  Level Minneapolis Center
20:49 42.6031 -93.0975 96° East 449 517 35,000 -180 Level Minneapolis Center
20:50 42.5886 -92.8958 95° East 451 519 34,700 -720 Descending Minneapolis Center
20:51 42.5753 -92.7286 96° East 451 519 33,600 -1,020 Descending Minneapolis Center
20:52 42.5614 -92.5600 96° East 454 522 32,700 -840 Descending Minneapolis Center
20:53 42.5108 -92.4075 114° Southeast 448 516 31,900 -840 Descending Minneapolis Center
20:54 42.4406 -92.2356 119° Southeast 444 511 31,000 -540 Descending Minneapolis Center
20:55 42.3942 -92.1214 119° Southeast 436 502 31,000  Level Chicago Center
20:56 42.3372 -91.9794 118° Southeast 436 502 31,000  Level Chicago Center
20:57 42.2783 -91.8358 119° Southeast 442 509 31,000  Level Chicago Center
20:58 42.2194 -91.6950 119° Southeast 439 505 31,000 -540 Level Chicago Center
20:59 42.1608 -91.5519 119° Southeast 441 507 30,000 -1,080 Descending Chicago Center
21:00 42.0983 -91.4186 122° Southeast 429 494 28,900 -1,140 Descending Chicago Center
21:01 42.0186 -91.2625 124° Southeast 427 491 27,800 -1,080 Descending Chicago Center
21:02 41.9533 -91.1303 124° Southeast 429 494 26,800 -1,020 Descending Chicago Center
21:03 41.8867 -90.9997 124° Southeast 427 491 25,800 -1,020 Descending Chicago Center
21:04 41.8225 -90.8700 124° Southeast 423 487 24,800 -1,020 Descending Chicago Center
21:05 41.7581 -90.7425 124° Southeast 418 481 23,800 -1,020 Descending Chicago Center
21:06 41.6883 -90.6092 125° Southeast 409 471 22,800 -1,020 Descending Chicago Center
21:07 41.6247 -90.4811 124° Southeast 413 475 21,800 -1,020 Descending Chicago Center
21:08 41.5617 -90.3589 125° Southeast 401 461 20,800 -1,080 Descending Chicago Center
21:09 41.5033 -90.2456 124° Southeast 376 433 19,700 -1,500 Descending Chicago Center
21:10 41.4453 -90.1367 125° Southeast 362 417 17,800 -1,860 Descending Chicago Center
21:11 41.3897 -90.0247 123° Southeast 362 417 16,000 -1,680 Descending Chicago Center
21:12 41.3339 -89.9211 126° Southeast 347 399 14,400 -1,560 Descending Chicago Center
21:13 41.2819 -89.8214 125° Southeast 331 381 12,900 -780 Descending Chicago Center
21:14 41.2225 -89.7061 124° Southeast 316 364 12,900 -540 Level Chicago Center
21:15 41.2200 -89.5936 92° East 327 376 11,900 -960 Descending Chicago Center
21:16 41.2497 -89.4781 71° East 328 377 11,000 -840 Descending Chicago Center
21:17 41.2658 -89.3617 80° East 326 375 10,200 -780 Descending Chicago Center
21:18 41.2347 -89.2622 113° Southeast 300 345 9,500 -780 Descending Chicago Center
21:19 41.2364 -89.1606 89° East 290 334 8,700 -720 Descending Chicago Center
21:20 41.2622 -89.0594 71° East 288 331 8,100 -420 Descending Chicago Center
21:21 41.3053 -88.9619 60° Northeast 292 336 7,900 -360 Descending Chicago Center
21:22 41.3422 -88.8647 63° Northeast 293 337 7,400 -840 Descending Chicago Center
21:23 41.3853 -88.7514 63° Northeast 288 331 6,300 -1,080 Descending Chicago Center
21:24 41.4200 -88.6558 64° Northeast 289 333 5,300 -1,020 Descending Chicago Center
21:25 41.4500 -88.5608 67° East 281 323 4,300 -660 Descending Chicago Center
21:26 41.4800 -88.4650 67° East 281 323 4,000 -180 Descending Chicago Center
21:27 41.5089 -88.3747 67° East 270 311 4,000  Level Chicago Center
21:28 41.5372 -88.2828 68° East 268 308 4,000  Level Chicago Center
21:29 41.5658 -88.1919 67° East 266 306 4,000 -300 Level Chicago Center
21:30 41.5942 -88.1028 67° East 262 302 3,400 -600 Descending Chicago Center
21:31 41.6231 -88.0103 67° East 264 304 2,900 -240 Descending Chicago Center
21:32 41.6508 -87.9247 66° East 259 298 3,000  Climbing Chicago Center
21:33 41.6922 -87.8694 45° Northeast 232 267 2,900 -540 Descending Chicago Center
21:34 41.7333 -87.8167 44° Northeast 154 177 2,000 -840 Descending Chicago TRACON
21:35 41.7667 -87.7833 37° Northeast 142 163 1,200 -840 Descending Chicago TRACON
21:38 41.7833 -87.7500 North  Level FlightAware Approximate